Погода в Касуре

Пакистан     31°07′00″N   74°27′27″E
темп.,
°C
ветер,
м/с
пор.,
м/с
влажн.,
%
обл.,
%
осадки,
мм/ч
давл.,
гПа
погр.,
м
19 января, ср
ср1923:00+11ю116097 0.0 101810
02:00+11зсз1163100 0.0 101810
05:00+12зюз116097 0.0 101610
08:00+12ююз2262100 0.0 101758
11:00+18ссз1142100 0.0 1017593
14:00+18з1146100 0.0 1015658
17:00+13ссв4776100 0.1 1014212
20:00+11св3592100 0.0 101592
20 января, чт
чт2023:00+10св229288 0.0 101511
02:00+9св11936 0.0 101410
05:00+9с119219 0.0 101310
08:00+10сз118652 0.0 101440
11:00+17ссз11605 0.0 1014579
14:00+19ссз22505 0.0 10111353
17:00+15с33682 0.0 101041
20:00+11св22850 0.0 101211
21 января, пт
пт2123:00+10всв22890 0.0 101313
02:00+9всв11890 0.0 101310
05:00+9св22900 0.0 101210
08:00+10всв22880 0.0 101458
11:00+17в21620 0.0 1015595
14:00+20в01470 0.0 10121409
17:00+16ссв11580 0.0 101111
20:00+12всв33740 0.0 101239
22 января, сб
сб2223:00+12вюв2580100 0.0 101289
02:00+12в388290 0.0 1009183
05:00+12в51178100 0.0 1007298
08:00+13юв41277100 0.2 1008631
11:00+11в51494100 3.0 1009585
14:00+12в71592100 1.4 10071023
17:00+12в71588100 1.9 1006702
20:00+12в81591100 1.1 1007763
23 января, вс
вс2323:00+11в61294100 3.9 1007651
02:00+12юв31094100 0.5 1007654
05:00+12вюв3995100 2.8 1007698
08:00+12юв4893100 0.2 1009706
11:00+13вюв4891100 0.3 1011614
14:00+13вюв4689100 0.4 1010413
17:00+13в3593100 0.6 1010226
20:00+13в3594100 0.1 1012154